Погода в Гютерсло

Германия     51°54′16″N   8°22′38″E
темп.,
°C
ветер,
м/с
пор.,
м/с
влажн.,
%
обл.,
%
осадки,
мм/ч
давл.,
гПа
погр.,
м
21 апреля, ср
ср2123:00+8ссв11720 0.0 101610
02:00+6ссв11800 0.0 101610
05:00+5ссв11860 0.0 101610
08:00+8с11770 0.0 101782
11:00+13ссз235346 0.0 1017923
14:00+13сз4553100 0.0 10171296
17:00+10с687277 0.1 1017816
20:00+8с59635 0.1 1019796
22 апреля, чт
чт2223:00+3ссз397698 0.0 1022487
02:00+1зсз258164 0.0 1022145
05:000з248473 0.0 1023104
08:00+3зсз387599 0.0 1024380
11:00+8сз575293 0.0 10241388
14:00+11сз584489 0.0 10242016
17:00+11ссз694450 0.0 10241898
20:00+7ссз59655 0.0 1026623
23 апреля, пт
пт2323:00+3сз27894 0.0 1027168
02:00+2з23965 0.0 102850
05:00+1з239815 0.0 102861
08:00+4зсз259028 0.0 1029247
11:00+9сз456255 0.0 10291325
14:00+12ссз454828 0.1 10281681
17:00+13ссз45447 0.0 10271857
20:00+9с376733 0.0 1028245
24 апреля, сб
сб2423:00+4ссв268816 0.0 1029118
02:00+2св11940 0.0 102911
05:00+1с11955 0.0 102910
08:00+4с118330 0.0 1029142
11:00+9ссз345590 0.0 10281046
14:00+12с455155 0.0 10271594
17:00+13с4549100 0.0 10261696
20:00+8ссв486585 0.0 1027349
25 апреля, вс
вс2523:00+3ссв38810 0.0 1028160
02:00+2всв26893 0.0 1028122
05:00+1всв22870 0.0 102825
08:00+4в23685 0.0 1028173
11:00+10в33430 0.0 10271080
14:00+13всв33320 0.0 10251462
17:00+14св32341 0.0 10231627
20:00+9св486128 0.0 1021248